Time,TemperatureF,DewpointF,PressureIn,WindDirection,WindDirectionDegrees,WindSpeedMPH,WindSpeedGustMPH,Humidity,HourlyPrecipIn,Conditions,Clouds,dailyrainin,SoftwareType,DateUTC
2013-02-28 00:04:00,37.1,28.9,30.22,NW,304,9.0,12.0,72,0.00,,,0.00,Weather View 32 v70,2013-02-28 06:04:00,
2013-02-28 00:09:00,37.0,28.8,30.22,NW,311,10.0,12.0,72,0.00,,,0.00,Weather View 32 v70,2013-02-28 06:09:00,
2013-02-28 00:14:00,37.0,28.8,30.23,WNW,295,7.0,12.0,72,0.00,,,0.00,Weather View 32 v70,2013-02-28 06:14:00,
2013-02-28 00:19:00,36.8,29.0,30.23,WNW,303,8.0,12.0,73,0.00,,,0.00,Weather View 32 v70,2013-02-28 06:19:00,
2013-02-28 00:29:00,36.6,28.8,30.23,WNW,298,5.0,12.0,73,0.00,,,0.00,Weather View 32 v70,2013-02-28 06:29:00,
2013-02-28 00:39:00,36.5,28.7,30.23,WNW,289,4.0,12.0,73,0.00,,,0.00,Weather View 32 v70,2013-02-28 06:39:00,
2013-02-28 00:49:00,36.4,28.9,30.23,WNW,299,5.0,12.0,74,0.00,,,0.00,Weather View 32 v70,2013-02-28 06:49:00,
2013-02-28 00:59:00,36.4,28.9,30.23,WNW,301,5.0,12.0,74,0.00,,,0.00,Weather View 32 v70,2013-02-28 06:59:00,
2013-02-28 01:03:00,36.3,28.8,30.23,WNW,303,4.0,12.0,74,0.00,,,0.00,Weather View 32 v70,2013-02-28 07:03:00,
2013-02-28 01:09:00,36.2,28.7,30.23,NW,316,4.0,12.0,74,0.00,,,0.00,Weather View 32 v70,2013-02-28 07:09:00,
2013-02-28 01:15:00,36.2,28.7,30.23,NW,316,4.0,10.0,74,0.00,,,0.00,Weather View 32 v70,2013-02-28 07:15:00,
2013-02-28 01:24:00,36.1,28.9,30.23,NW,324,5.0,10.0,75,0.00,,,0.00,Weather View 32 v70,2013-02-28 07:24:00,
2013-02-28 01:28:00,36.0,28.8,30.23,NW,316,3.0,9.0,75,0.00,,,0.00,Weather View 32 v70,2013-02-28 07:28:00,
2013-02-28 01:34:00,36.0,28.8,30.23,NW,316,6.0,9.0,75,0.00,,,0.00,Weather View 32 v70,2013-02-28 07:34:00,
2013-02-28 01:39:00,36.0,28.8,30.23,NW,312,6.0,9.0,75,0.00,,,0.00,Weather View 32 v70,2013-02-28 07:39:00,
2013-02-28 01:48:00,35.9,28.7,30.23,WNW,300,5.0,9.0,75,0.00,,,0.00,Weather View 32 v70,2013-02-28 07:48:00,
2013-02-28 01:54:00,35.9,29.1,30.23,WNW,300,4.0,9.0,76,0.00,,,0.00,Weather View 32 v70,2013-02-28 07:54:00,
2013-02-28 01:59:00,35.7,28.9,30.23,WNW,300,5.0,9.0,76,0.00,,,0.00,Weather View 32 v70,2013-02-28 07:59:00,
2013-02-28 02:04:00,35.6,28.8,30.23,WNW,290,7.0,9.0,76,0.00,,,0.00,Weather View 32 v70,2013-02-28 08:04:00,
2013-02-28 02:09:00,35.6,28.8,30.23,WNW,299,4.0,9.0,76,0.00,,,0.00,Weather View 32 v70,2013-02-28 08:09:00,
2013-02-28 02:14:00,35.5,29.0,30.24,WNW,299,4.0,9.0,77,0.00,,,0.00,Weather View 32 v70,2013-02-28 08:14:00,
2013-02-28 02:19:00,35.4,28.9,30.24,WNW,297,4.0,8.0,77,0.00,,,0.00,Weather View 32 v70,2013-02-28 08:19:00,
2013-02-28 02:29:00,35.3,28.8,30.24,WNW,289,6.0,8.0,77,0.00,,,0.00,Weather View 32 v70,2013-02-28 08:29:00,
2013-02-28 02:39:00,35.3,28.8,30.24,WNW,299,6.0,9.0,77,0.00,,,0.00,Weather View 32 v70,2013-02-28 08:39:00,
2013-02-28 02:48:00,35.4,28.9,30.24,West,271,3.0,9.0,77,0.00,,,0.00,Weather View 32 v70,2013-02-28 08:48:00,
2013-02-28 02:54:00,35.3,28.8,30.24,West,272,5.0,9.0,77,0.00,,,0.00,Weather View 32 v70,2013-02-28 08:54:00,
2013-02-28 02:59:00,35.2,29.0,30.24,West,272,4.0,9.0,78,0.00,,,0.00,Weather View 32 v70,2013-02-28 08:59:00,
2013-02-28 03:09:00,34.9,28.7,30.25,West,274,3.0,9.0,78,0.00,,,0.00,Weather View 32 v70,2013-02-28 09:09:00,
2013-02-28 03:14:00,34.9,28.7,30.25,WNW,286,3.0,9.0,78,0.00,,,0.00,Weather View 32 v70,2013-02-28 09:14:00,
2013-02-28 03:19:00,35.0,29.1,30.24,West,274,5.0,9.0,79,0.00,,,0.00,Weather View 32 v70,2013-02-28 09:19:00,
2013-02-28 03:29:00,34.8,28.9,30.25,West,277,5.0,9.0,79,0.00,,,0.00,Weather View 32 v70,2013-02-28 09:29:00,
2013-02-28 03:39:00,34.6,28.8,30.24,West,279,6.0,9.0,79,0.00,,,0.00,Weather View 32 v70,2013-02-28 09:39:00,
2013-02-28 03:49:00,34.5,28.7,30.24,West,280,6.0,9.0,79,0.00,,,0.00,Weather View 32 v70,2013-02-28 09:49:00,
2013-02-28 03:54:00,34.4,28.6,30.24,West,280,3.0,9.0,79,0.00,,,0.00,Weather View 32 v70,2013-02-28 09:54:00,
2013-02-28 03:59:00,34.4,28.9,30.24,West,279,6.0,9.0,80,0.00,,,0.00,Weather View 32 v70,2013-02-28 09:59:00,
2013-02-28 04:04:00,34.3,28.8,30.24,West,278,4.0,9.0,80,0.00,,,0.00,Weather View 32 v70,2013-02-28 10:04:00,
2013-02-28 04:14:00,34.2,28.7,30.24,West,278,4.0,9.0,80,0.00,,,0.00,Weather View 32 v70,2013-02-28 10:14:00,
2013-02-28 04:18:00,34.1,28.6,30.24,West,280,6.0,9.0,80,0.00,,,0.00,Weather View 32 v70,2013-02-28 10:18:00,
2013-02-28 04:23:00,34.0,28.5,30.24,West,275,3.0,9.0,80,0.00,,,0.00,Weather View 32 v70,2013-02-28 10:23:00,
2013-02-28 04:29:00,33.9,28.4,30.24,West,276,5.0,9.0,80,0.00,,,0.00,Weather View 32 v70,2013-02-28 10:29:00,
2013-02-28 04:34:00,33.8,28.3,30.24,West,279,3.0,9.0,80,0.00,,,0.00,Weather View 32 v70,2013-02-28 10:34:00,
2013-02-28 04:39:00,33.9,28.7,30.24,West,278,6.0,9.0,81,0.00,,,0.00,Weather View 32 v70,2013-02-28 10:39:00,
2013-02-28 04:49:00,33.9,28.7,30.24,WNW,285,6.0,9.0,81,0.00,,,0.00,Weather View 32 v70,2013-02-28 10:49:00,
2013-02-28 04:59:00,33.9,28.4,30.25,West,281,3.0,9.0,80,0.00,,,0.00,Weather View 32 v70,2013-02-28 10:59:00,
2013-02-28 05:04:00,33.8,28.6,30.25,West,281,3.0,9.0,81,0.00,,,0.00,Weather View 32 v70,2013-02-28 11:04:00,
2013-02-28 05:08:00,33.7,28.5,30.25,West,280,2.0,9.0,81,0.00,,,0.00,Weather View 32 v70,2013-02-28 11:08:00,
2013-02-28 05:14:00,33.7,28.5,30.25,West,281,5.0,9.0,81,0.00,,,0.00,Weather View 32 v70,2013-02-28 11:14:00,
2013-02-28 05:24:00,33.7,28.5,30.25,West,274,4.0,9.0,81,0.00,,,0.00,Weather View 32 v70,2013-02-28 11:24:00,
2013-02-28 05:29:00,33.7,28.5,30.25,West,278,7.0,9.0,81,0.00,,,0.00,Weather View 32 v70,2013-02-28 11:29:00,
2013-02-28 05:34:00,33.7,28.5,30.25,WNW,291,4.0,9.0,81,0.00,,,0.00,Weather View 32 v70,2013-02-28 11:34:00,
2013-02-28 05:39:00,33.7,28.5,30.25,WNW,295,5.0,11.0,81,0.00,,,0.00,Weather View 32 v70,2013-02-28 11:39:00,
2013-02-28 05:48:00,33.6,28.4,30.26,WNW,286,6.0,11.0,81,0.00,,,0.00,Weather View 32 v70,2013-02-28 11:48:00,
2013-02-28 05:54:00,33.6,28.4,30.26,WNW,301,6.0,11.0,81,0.00,,,0.00,Weather View 32 v70,2013-02-28 11:54:00,
2013-02-28 06:04:00,33.8,28.3,30.26,WNW,303,6.0,11.0,80,0.00,,,0.00,Weather View 32 v70,2013-02-28 12:04:00,
2013-02-28 06:09:00,33.8,28.3,30.26,WNW,289,6.0,11.0,80,0.00,,,0.00,Weather View 32 v70,2013-02-28 12:09:00,
2013-02-28 06:14:00,33.7,28.5,30.26,WNW,295,4.0,11.0,81,0.00,,,0.00,Weather View 32 v70,2013-02-28 12:14:00,
2013-02-28 06:19:00,33.7,28.2,30.26,WNW,283,6.0,11.0,80,0.00,,,0.00,Weather View 32 v70,2013-02-28 12:19:00,
2013-02-28 06:29:00,33.6,28.1,30.27,WNW,283,6.0,11.0,80,0.00,,,0.00,Weather View 32 v70,2013-02-28 12:29:00,
2013-02-28 06:33:00,33.5,28.0,30.27,West,278,6.0,11.0,80,0.00,,,0.00,Weather View 32 v70,2013-02-28 12:33:00,
2013-02-28 06:38:00,33.4,28.2,30.27,West,276,5.0,11.0,81,0.00,,,0.00,Weather View 32 v70,2013-02-28 12:38:00,
2013-02-28 06:44:00,33.4,28.2,30.27,West,270,5.0,11.0,81,0.00,,,0.00,Weather View 32 v70,2013-02-28 12:44:00,
2013-02-28 06:49:00,33.3,28.1,30.27,West,276,3.0,11.0,81,0.00,,,0.00,Weather View 32 v70,2013-02-28 12:49:00,
2013-02-28 06:54:00,33.3,28.1,30.27,West,278,4.0,11.0,81,0.00,,,0.00,Weather View 32 v70,2013-02-28 12:54:00,
2013-02-28 06:59:00,33.2,28.0,30.27,West,278,4.0,11.0,81,0.00,,,0.00,Weather View 32 v70,2013-02-28 12:59:00,
2013-02-28 07:04:00,33.2,28.0,30.27,West,276,7.0,11.0,81,0.00,,,0.00,Weather View 32 v70,2013-02-28 13:04:00,
2013-02-28 07:09:00,33.1,27.9,30.27,West,275,6.0,11.0,81,0.00,,,0.00,Weather View 32 v70,2013-02-28 13:09:00,
2013-02-28 07:19:00,33.2,28.0,30.28,West,274,5.0,13.0,81,0.00,,,0.00,Weather View 32 v70,2013-02-28 13:19:00,
2013-02-28 07:28:00,33.3,28.1,30.28,West,264,8.0,13.0,81,0.00,,,0.00,Weather View 32 v70,2013-02-28 13:28:00,
2013-02-28 07:34:00,33.5,28.3,30.28,WNW,283,5.0,13.0,81,0.00,,,0.00,Weather View 32 v70,2013-02-28 13:34:00,
2013-02-28 07:43:00,33.7,28.2,30.28,WNW,291,7.0,13.0,80,0.00,,,0.00,Weather View 32 v70,2013-02-28 13:43:00,
2013-02-28 07:49:00,33.9,28.1,30.28,WNW,297,7.0,13.0,79,0.00,,,0.00,Weather View 32 v70,2013-02-28 13:49:00,
2013-02-28 07:59:00,34.3,28.2,30.28,WNW,297,9.0,13.0,78,0.00,,,0.00,Weather View 32 v70,2013-02-28 13:59:00,
2013-02-28 08:04:00,34.4,28.2,30.28,WNW,298,8.0,13.0,78,0.00,,,0.00,Weather View 32 v70,2013-02-28 14:04:00,
2013-02-28 08:09:00,34.6,28.4,30.28,NW,310,7.0,13.0,78,0.00,,,0.00,Weather View 32 v70,2013-02-28 14:09:00,
2013-02-28 08:19:00,35.0,28.5,30.29,WNW,285,7.0,13.0,77,0.00,,,0.00,Weather View 32 v70,2013-02-28 14:19:00,
2013-02-28 08:29:00,35.4,28.6,30.29,NW,326,6.0,14.0,76,0.00,,,0.00,Weather View 32 v70,2013-02-28 14:29:00,
2013-02-28 08:39:00,35.9,28.7,30.29,WNW,287,7.0,14.0,75,0.00,,,0.00,Weather View 32 v70,2013-02-28 14:39:00,
2013-02-28 08:43:00,36.0,28.8,30.29,NNW,332,10.0,14.0,75,0.00,,,0.00,Weather View 32 v70,2013-02-28 14:43:00,
2013-02-28 08:48:00,36.0,28.5,30.29,WNW,299,7.0,14.0,74,0.00,,,0.00,Weather View 32 v70,2013-02-28 14:48:00,
2013-02-28 08:54:00,36.2,28.7,30.29,NW,323,8.0,14.0,74,0.00,,,0.00,Weather View 32 v70,2013-02-28 14:54:00,
2013-02-28 08:59:00,36.6,28.8,30.29,NNW,327,6.0,14.0,73,0.00,,,0.00,Weather View 32 v70,2013-02-28 14:59:00,
2013-02-28 09:04:00,37.0,29.1,30.29,WNW,290,7.0,14.0,73,0.00,,,0.00,Weather View 32 v70,2013-02-28 15:04:00,
2013-02-28 09:14:00,37.3,28.8,30.29,NNW,343,11.0,14.0,71,0.00,,,0.00,Weather View 32 v70,2013-02-28 15:14:00,
2013-02-28 09:19:00,37.4,28.8,30.29,NNW,338,5.0,17.0,71,0.00,,,0.00,Weather View 32 v70,2013-02-28 15:19:00,
2013-02-28 09:24:00,37.6,28.7,30.29,NW,312,6.0,17.0,70,0.00,,,0.00,Weather View 32 v70,2013-02-28 15:24:00,
2013-02-28 09:29:00,37.5,28.6,30.29,North,349,12.0,17.0,70,0.00,,,0.00,Weather View 32 v70,2013-02-28 15:29:00,
2013-02-28 09:39:00,37.9,29.0,30.29,NW,323,8.0,17.0,70,0.00,,,0.00,Weather View 32 v70,2013-02-28 15:39:00,
2013-02-28 09:48:00,37.9,28.6,30.29,NNW,332,5.0,17.0,69,0.00,,,0.00,Weather View 32 v70,2013-02-28 15:48:00,
2013-02-28 09:54:00,38.3,29.4,30.29,NW,320,12.0,17.0,70,0.00,,,0.00,Weather View 32 v70,2013-02-28 15:54:00,
2013-02-28 09:59:00,38.4,29.1,30.29,NNW,348,8.0,17.0,69,0.00,,,0.00,Weather View 32 v70,2013-02-28 15:59:00,
2013-02-28 10:09:00,38.7,29.4,30.29,NNW,346,8.0,17.0,69,0.00,,,0.00,Weather View 32 v70,2013-02-28 16:09:00,
2013-02-28 10:18:00,39.1,29.4,30.28,North,349,5.0,16.0,68,0.00,,,0.00,Weather View 32 v70,2013-02-28 16:18:00,
2013-02-28 10:24:00,39.6,29.5,30.29,NW,316,8.0,16.0,67,0.00,,,0.00,Weather View 32 v70,2013-02-28 16:24:00,
2013-02-28 10:28:00,39.6,29.5,30.29,NNW,335,0.0,16.0,67,0.00,,,0.00,Weather View 32 v70,2013-02-28 16:28:00,
2013-02-28 10:39:00,40.1,29.6,30.29,NW,326,8.0,16.0,66,0.00,,,0.00,Weather View 32 v70,2013-02-28 16:39:00,
2013-02-28 10:49:00,40.5,29.6,30.29,NW,323,8.0,16.0,65,0.00,,,0.00,Weather View 32 v70,2013-02-28 16:49:00,
2013-02-28 10:58:00,40.6,29.7,30.29,NW,310,11.0,16.0,65,0.00,,,0.00,Weather View 32 v70,2013-02-28 16:58:00,
2013-02-28 11:03:00,40.6,29.4,30.28,WNW,301,8.0,16.0,64,0.00,,,0.00,Weather View 32 v70,2013-02-28 17:03:00,
2013-02-28 11:08:00,41.2,29.5,30.28,NW,308,8.0,16.0,63,0.00,,,0.00,Weather View 32 v70,2013-02-28 17:08:00,
2013-02-28 11:13:00,41.4,29.7,30.29,NW,326,9.0,16.0,63,0.00,,,0.00,Weather View 32 v70,2013-02-28 17:13:00,
2013-02-28 11:19:00,41.4,29.3,30.28,NW,324,9.0,16.0,62,0.00,,,0.00,Weather View 32 v70,2013-02-28 17:19:00,
2013-02-28 11:28:00,41.7,29.6,30.29,West,276,7.0,16.0,62,0.00,,,0.00,Weather View 32 v70,2013-02-28 17:28:00,
2013-02-28 11:34:00,42.0,29.5,30.29,NW,326,7.0,16.0,61,0.00,,,0.00,Weather View 32 v70,2013-02-28 17:34:00,
2013-02-28 11:39:00,41.9,29.8,30.29,West,264,10.0,15.0,62,0.00,,,0.00,Weather View 32 v70,2013-02-28 17:39:00,
2013-02-28 11:48:00,42.3,29.8,30.29,WNW,301,8.0,15.0,61,0.00,,,0.00,Weather View 32 v70,2013-02-28 17:48:00,
2013-02-28 11:54:00,42.6,29.7,30.29,NW,308,6.0,15.0,60,0.00,,,0.00,Weather View 32 v70,2013-02-28 17:54:00,
2013-02-28 11:59:00,42.9,30.0,30.28,NNW,330,9.0,15.0,60,0.00,,,0.00,Weather View 32 v70,2013-02-28 17:59:00,
2013-02-28 12:08:00,43.3,29.9,30.29,NNW,335,5.0,15.0,59,0.00,,,0.00,Weather View 32 v70,2013-02-28 18:08:00,
2013-02-28 12:14:00,43.8,30.0,30.28,NW,305,7.0,15.0,58,0.00,,,0.00,Weather View 32 v70,2013-02-28 18:14:00,
2013-02-28 12:21:00,43.7,29.9,30.28,WNW,287,10.0,15.0,58,0.00,,,0.00,Weather View 32 v70,2013-02-28 18:21:00,
2013-02-28 12:29:00,43.6,29.8,30.28,NNW,341,8.0,14.0,58,0.00,,,0.00,Weather View 32 v70,2013-02-28 18:29:00,
2013-02-28 12:38:00,43.7,29.0,30.27,WNW,293,9.0,18.0,56,0.00,,,0.00,Weather View 32 v70,2013-02-28 18:38:00,
2013-02-28 12:44:00,44.4,29.7,30.27,NW,323,6.0,18.0,56,0.00,,,0.00,Weather View 32 v70,2013-02-28 18:44:00,
2013-02-28 12:49:00,44.4,30.1,30.27,NW,307,10.0,18.0,57,0.00,,,0.00,Weather View 32 v70,2013-02-28 18:49:00,
2013-02-28 12:58:00,44.9,29.7,30.27,WNW,299,11.0,18.0,55,0.00,,,0.00,Weather View 32 v70,2013-02-28 18:58:00,
2013-02-28 13:03:00,45.2,30.0,30.26,NW,326,12.0,18.0,55,0.00,,,0.00,Weather View 32 v70,2013-02-28 19:03:00,
2013-02-28 13:08:00,45.3,29.6,30.26,NW,308,4.0,18.0,54,0.00,,,0.00,Weather View 32 v70,2013-02-28 19:08:00,
2013-02-28 13:13:00,45.2,30.0,30.26,NNW,331,8.0,18.0,55,0.00,,,0.00,Weather View 32 v70,2013-02-28 19:13:00,
2013-02-28 13:19:00,45.0,30.2,30.26,WNW,301,7.0,18.0,56,0.00,,,0.00,Weather View 32 v70,2013-02-28 19:19:00,
2013-02-28 13:24:00,45.4,30.2,30.26,NW,313,4.0,18.0,55,0.00,,,0.00,Weather View 32 v70,2013-02-28 19:24:00,
2013-02-28 13:29:00,45.3,29.6,30.26,WNW,299,5.0,18.0,54,0.00,,,0.00,Weather View 32 v70,2013-02-28 19:29:00,
2013-02-28 13:34:00,45.7,30.0,30.26,WNW,292,10.0,16.0,54,0.00,,,0.00,Weather View 32 v70,2013-02-28 19:34:00,
2013-02-28 13:39:00,45.7,30.0,30.26,WNW,287,10.0,16.0,54,0.00,,,0.00,Weather View 32 v70,2013-02-28 19:39:00,
2013-02-28 13:48:00,45.4,29.7,30.25,West,266,8.0,16.0,54,0.00,,,0.00,Weather View 32 v70,2013-02-28 19:48:00,
2013-02-28 13:54:00,45.5,30.2,30.25,NW,305,6.0,16.0,55,0.00,,,0.00,Weather View 32 v70,2013-02-28 19:54:00,
2013-02-28 13:59:00,45.4,30.2,30.25,WNW,297,11.0,16.0,55,0.00,,,0.00,Weather View 32 v70,2013-02-28 19:59:00,
2013-02-28 14:04:00,45.4,30.2,30.25,NNW,338,9.0,16.0,55,0.00,,,0.00,Weather View 32 v70,2013-02-28 20:04:00,
2013-02-28 14:09:00,45.4,30.2,30.25,NNW,332,10.0,16.0,55,0.00,,,0.00,Weather View 32 v70,2013-02-28 20:09:00,
2013-02-28 14:14:00,45.7,30.9,30.25,WNW,296,9.0,16.0,56,0.00,,,0.00,Weather View 32 v70,2013-02-28 20:14:00,
2013-02-28 14:19:00,46.1,30.8,30.25,NNW,343,8.0,16.0,55,0.00,,,0.00,Weather View 32 v70,2013-02-28 20:19:00,
2013-02-28 14:24:00,46.3,31.0,30.25,WNW,285,11.0,16.0,55,0.00,,,0.00,Weather View 32 v70,2013-02-28 20:24:00,
2013-02-28 14:28:00,46.4,31.1,30.25,West,260,13.0,16.0,55,0.00,,,0.00,Weather View 32 v70,2013-02-28 20:28:00,
2013-02-28 14:39:00,46.1,30.4,30.25,NNW,329,10.0,16.0,54,0.00,,,0.00,Weather View 32 v70,2013-02-28 20:39:00,
2013-02-28 14:44:00,45.9,30.6,30.25,NW,305,6.0,16.0,55,0.00,,,0.00,Weather View 32 v70,2013-02-28 20:44:00,
2013-02-28 14:49:00,46.3,31.0,30.25,NW,310,6.0,16.0,55,0.00,,,0.00,Weather View 32 v70,2013-02-28 20:49:00,
2013-02-28 14:58:00,47.0,31.2,30.25,WNW,293,14.0,16.0,54,0.00,,,0.00,Weather View 32 v70,2013-02-28 20:58:00,
2013-02-28 15:03:00,47.2,30.9,30.25,West,274,11.0,16.0,53,0.00,,,0.00,Weather View 32 v70,2013-02-28 21:03:00,
2013-02-28 15:08:00,46.8,31.0,30.25,NNW,335,2.0,16.0,54,0.00,,,0.00,Weather View 32 v70,2013-02-28 21:08:00,
2013-02-28 15:14:00,46.7,31.4,30.25,NNW,341,14.0,16.0,55,0.00,,,0.00,Weather View 32 v70,2013-02-28 21:14:00,
2013-02-28 15:23:00,46.5,31.2,30.25,NNW,330,9.0,16.0,55,0.00,,,0.00,Weather View 32 v70,2013-02-28 21:23:00,
2013-02-28 15:29:00,45.6,30.8,30.26,NNW,337,7.0,16.0,56,0.00,,,0.00,Weather View 32 v70,2013-02-28 21:29:00,
2013-02-28 15:38:00,45.4,30.6,30.26,North,354,11.0,16.0,56,0.00,,,0.00,Weather View 32 v70,2013-02-28 21:38:00,
2013-02-28 15:49:00,45.0,30.7,30.26,NNW,343,5.0,20.0,57,0.00,,,0.00,Weather View 32 v70,2013-02-28 21:49:00,
2013-02-28 15:54:00,45.6,30.8,30.26,NNW,346,10.0,20.0,56,0.00,,,0.00,Weather View 32 v70,2013-02-28 21:54:00,
2013-02-28 15:59:00,44.9,30.6,30.26,NNW,337,7.0,20.0,57,0.00,,,0.00,Weather View 32 v70,2013-02-28 21:59:00,
2013-02-28 16:04:00,44.9,30.6,30.26,North,354,7.0,20.0,57,0.00,,,0.00,Weather View 32 v70,2013-02-28 22:04:00,
2013-02-28 16:09:00,44.7,30.4,30.26,North,350,10.0,20.0,57,0.00,,,0.00,Weather View 32 v70,2013-02-28 22:09:00,
2013-02-28 16:18:00,44.3,30.0,30.26,NNW,330,9.0,20.0,57,0.00,,,0.00,Weather View 32 v70,2013-02-28 22:18:00,
2013-02-28 16:24:00,44.0,30.6,30.26,NNW,335,7.0,20.0,59,0.00,,,0.00,Weather View 32 v70,2013-02-28 22:24:00,
2013-02-28 16:34:00,43.7,30.3,30.26,NNW,344,12.0,20.0,59,0.00,,,0.00,Weather View 32 v70,2013-02-28 22:34:00,
2013-02-28 16:39:00,43.4,30.0,30.26,NW,316,11.0,20.0,59,0.00,,,0.00,Weather View 32 v70,2013-02-28 22:39:00,
2013-02-28 16:48:00,43.1,29.7,30.26,NNE,12,7.0,17.0,59,0.00,,,0.00,Weather View 32 v70,2013-02-28 22:48:00,
2013-02-28 16:53:00,43.1,29.7,30.26,NNW,333,7.0,17.0,59,0.00,,,0.00,Weather View 32 v70,2013-02-28 22:53:00,
2013-02-28 16:58:00,43.1,30.1,30.26,NNW,339,8.0,17.0,60,0.00,,,0.00,Weather View 32 v70,2013-02-28 22:58:00,
2013-02-28 17:03:00,43.0,30.5,30.26,NNW,332,8.0,17.0,61,0.00,,,0.00,Weather View 32 v70,2013-02-28 23:03:00,
2013-02-28 17:09:00,42.9,30.4,30.26,North,350,8.0,17.0,61,0.00,,,0.00,Weather View 32 v70,2013-02-28 23:09:00,
2013-02-28 17:14:00,43.0,30.5,30.26,North,354,3.0,17.0,61,0.00,,,0.00,Weather View 32 v70,2013-02-28 23:14:00,
2013-02-28 17:23:00,42.5,30.4,30.26,NNW,343,6.0,17.0,62,0.00,,,0.00,Weather View 32 v70,2013-02-28 23:23:00,
2013-02-28 17:28:00,42.3,30.2,30.26,North,4,11.0,17.0,62,0.00,,,0.00,Weather View 32 v70,2013-02-28 23:28:00,
2013-02-28 17:38:00,41.8,30.1,30.26,North,354,10.0,17.0,63,0.00,,,0.00,Weather View 32 v70,2013-02-28 23:38:00,
2013-02-28 17:44:00,41.9,30.6,30.27,NNW,333,6.0,14.0,64,0.00,,,0.00,Weather View 32 v70,2013-02-28 23:44:00,
2013-02-28 17:49:00,41.8,30.5,30.27,North,354,6.0,13.0,64,0.00,,,0.00,Weather View 32 v70,2013-02-28 23:49:00,
2013-02-28 17:58:00,41.2,29.9,30.27,NNW,343,7.0,13.0,64,0.00,,,0.00,Weather View 32 v70,2013-02-28 23:58:00,
2013-02-28 18:03:00,41.0,29.7,30.27,North,354,8.0,13.0,64,0.00,,,0.00,Weather View 32 v70,2013-03-01 00:03:00,
2013-02-28 18:08:00,40.8,29.6,30.27,North,359,7.0,13.0,64,0.00,,,0.00,Weather View 32 v70,2013-03-01 00:08:00,
2013-02-28 18:14:00,40.7,29.8,30.28,North,354,4.0,13.0,65,0.00,,,0.00,Weather View 32 v70,2013-03-01 00:14:00,
2013-02-28 18:24:00,40.6,29.7,30.28,North,354,6.0,13.0,65,0.00,,,0.00,Weather View 32 v70,2013-03-01 00:24:00,
2013-02-28 18:29:00,40.5,29.6,30.28,NNW,342,7.0,13.0,65,0.00,,,0.00,Weather View 32 v70,2013-03-01 00:29:00,
2013-02-28 18:34:00,40.4,29.6,30.28,North,350,5.0,13.0,65,0.00,,,0.00,Weather View 32 v70,2013-03-01 00:34:00,
2013-02-28 18:43:00,40.2,29.7,30.28,North,354,7.0,12.0,66,0.00,,,0.00,Weather View 32 v70,2013-03-01 00:43:00,
2013-02-28 18:48:00,40.0,29.5,30.28,North,359,6.0,14.0,66,0.00,,,0.00,Weather View 32 v70,2013-03-01 00:48:00,
2013-02-28 18:54:00,39.9,29.5,30.28,North,354,4.0,14.0,66,0.00,,,0.00,Weather View 32 v70,2013-03-01 00:54:00,
2013-02-28 18:59:00,39.9,29.5,30.28,NNW,348,5.0,14.0,66,0.00,,,0.00,Weather View 32 v70,2013-03-01 00:59:00,
2013-02-28 19:03:00,39.9,29.8,30.28,North,354,6.0,14.0,67,0.00,,,0.00,Weather View 32 v70,2013-03-01 01:03:00,
2013-02-28 19:08:00,39.9,29.8,30.28,North,354,10.0,14.0,67,0.00,,,0.00,Weather View 32 v70,2013-03-01 01:08:00,
2013-02-28 19:13:00,39.7,29.3,30.28,North,359,5.0,14.0,66,0.00,,,0.00,Weather View 32 v70,2013-03-01 01:13:00,
2013-02-28 19:24:00,39.6,29.5,30.28,NNW,348,6.0,14.0,67,0.00,,,0.00,Weather View 32 v70,2013-03-01 01:24:00,
2013-02-28 19:34:00,39.7,29.3,30.29,NNW,345,6.0,14.0,66,0.00,,,0.00,Weather View 32 v70,2013-03-01 01:34:00,
2013-02-28 19:38:00,39.7,29.3,30.29,NW,326,5.0,14.0,66,0.00,,,0.00,Weather View 32 v70,2013-03-01 01:38:00,
2013-02-28 19:48:00,39.7,29.6,30.29,NNW,333,5.0,13.0,67,0.00,,,0.00,Weather View 32 v70,2013-03-01 01:48:00,
2013-02-28 19:53:00,39.6,29.5,30.29,North,354,7.0,12.0,67,0.00,,,0.00,Weather View 32 v70,2013-03-01 01:53:00,
2013-02-28 19:59:00,39.5,29.4,30.29,North,354,7.0,12.0,67,0.00,,,0.00,Weather View 32 v70,2013-03-01 01:59:00,
2013-02-28 20:04:00,39.4,29.7,30.29,North,354,6.0,12.0,68,0.00,,,0.00,Weather View 32 v70,2013-03-01 02:04:00,
2013-02-28 20:09:00,39.4,29.7,30.29,North,354,7.0,12.0,68,0.00,,,0.00,Weather View 32 v70,2013-03-01 02:09:00,
2013-02-28 20:13:00,39.3,29.2,30.29,North,354,9.0,12.0,67,0.00,,,0.00,Weather View 32 v70,2013-03-01 02:13:00,
2013-02-28 20:23:00,39.2,29.5,30.29,North,354,4.0,12.0,68,0.00,,,0.00,Weather View 32 v70,2013-03-01 02:23:00,
2013-02-28 20:28:00,39.2,29.5,30.29,North,8,6.0,12.0,68,0.00,,,0.00,Weather View 32 v70,2013-03-01 02:28:00,
2013-02-28 20:34:00,39.2,29.5,30.29,NNW,339,6.0,12.0,68,0.00,,,0.00,Weather View 32 v70,2013-03-01 02:34:00,
2013-02-28 20:38:00,39.1,29.4,30.29,North,354,4.0,11.0,68,0.00,,,0.00,Weather View 32 v70,2013-03-01 02:38:00,
2013-02-28 20:43:00,39.2,29.5,30.29,NNW,336,5.0,13.0,68,0.00,,,0.00,Weather View 32 v70,2013-03-01 02:43:00,
2013-02-28 20:48:00,39.2,29.2,30.30,NW,322,5.0,13.0,67,0.00,,,0.00,Weather View 32 v70,2013-03-01 02:48:00,
2013-02-28 20:53:00,39.2,28.8,30.30,North,349,9.0,14.0,66,0.00,,,0.00,Weather View 32 v70,2013-03-01 02:53:00,
2013-02-28 20:59:00,39.1,29.1,30.30,NNW,330,5.0,14.0,67,0.00,,,0.00,Weather View 32 v70,2013-03-01 02:59:00,
2013-02-28 21:04:00,39.1,29.1,30.30,NNW,339,6.0,14.0,67,0.00,,,0.00,Weather View 32 v70,2013-03-01 03:04:00,
2013-02-28 21:09:00,38.9,28.9,30.30,North,359,6.0,14.0,67,0.00,,,0.00,Weather View 32 v70,2013-03-01 03:09:00,
2013-02-28 21:18:00,38.7,28.7,30.30,North,359,4.0,14.0,67,0.00,,,0.00,Weather View 32 v70,2013-03-01 03:18:00,
2013-02-28 21:27:00,38.6,28.6,30.30,NNW,338,9.0,14.0,67,0.00,,,0.00,Weather View 32 v70,2013-03-01 03:27:00,
2013-02-28 21:33:00,38.5,28.5,30.30,North,349,6.0,14.0,67,0.00,,,0.00,Weather View 32 v70,2013-03-01 03:33:00,
2013-02-28 21:38:00,38.5,28.5,30.30,NW,321,5.0,14.0,67,0.00,,,0.00,Weather View 32 v70,2013-03-01 03:38:00,
2013-02-28 21:44:00,38.5,28.8,30.30,NW,318,10.0,14.0,68,0.00,,,0.00,Weather View 32 v70,2013-03-01 03:44:00,
2013-02-28 21:49:00,38.5,28.8,30.30,NW,325,8.0,14.0,68,0.00,,,0.00,Weather View 32 v70,2013-03-01 03:49:00,
2013-02-28 21:58:00,38.4,28.8,30.30,NNW,345,6.0,14.0,68,0.00,,,0.00,Weather View 32 v70,2013-03-01 03:58:00,
2013-02-28 22:03:00,38.4,28.8,30.30,NNW,341,7.0,14.0,68,0.00,,,0.00,Weather View 32 v70,2013-03-01 04:03:00,
2013-02-28 22:08:00,38.4,28.8,30.30,NNW,344,5.0,14.0,68,0.00,,,0.00,Weather View 32 v70,2013-03-01 04:08:00,
2013-02-28 22:13:00,38.4,28.8,30.30,NNW,346,6.0,14.0,68,0.00,,,0.00,Weather View 32 v70,2013-03-01 04:13:00,
2013-02-28 22:19:00,38.4,28.8,30.30,NNW,340,7.0,14.0,68,0.00,,,0.00,Weather View 32 v70,2013-03-01 04:19:00,
2013-02-28 22:24:00,38.3,28.3,30.30,NNW,338,12.0,14.0,67,0.00,,,0.00,Weather View 32 v70,2013-03-01 04:24:00,
2013-02-28 22:29:00,38.2,28.2,30.30,NW,326,6.0,20.0,67,0.00,,,0.00,Weather View 32 v70,2013-03-01 04:29:00,
2013-02-28 22:34:00,38.1,28.1,30.30,NNW,343,10.0,20.0,67,0.00,,,0.00,Weather View 32 v70,2013-03-01 04:34:00,
2013-02-28 22:43:00,37.9,27.9,30.30,NW,320,6.0,20.0,67,0.00,,,0.00,Weather View 32 v70,2013-03-01 04:43:00,
2013-02-28 22:48:00,37.9,27.9,30.30,NNW,330,4.0,20.0,67,0.00,,,0.00,Weather View 32 v70,2013-03-01 04:48:00,
2013-02-28 22:54:00,37.9,27.9,30.30,NW,320,5.0,20.0,67,0.00,,,0.00,Weather View 32 v70,2013-03-01 04:54:00,
2013-02-28 22:58:00,37.8,28.2,30.29,NW,320,6.0,20.0,68,0.00,,,0.00,Weather View 32 v70,2013-03-01 04:58:00,
2013-02-28 23:03:00,37.8,28.2,30.29,NNW,337,11.0,20.0,68,0.00,,,0.00,Weather View 32 v70,2013-03-01 05:03:00,
2013-02-28 23:08:00,37.7,27.7,30.29,North,354,6.0,20.0,67,0.00,,,0.00,Weather View 32 v70,2013-03-01 05:08:00,
2013-02-28 23:13:00,37.6,27.6,30.29,North,359,11.0,20.0,67,0.00,,,0.00,Weather View 32 v70,2013-03-01 05:13:00,
2013-02-28 23:18:00,37.5,27.9,30.29,North,359,12.0,20.0,68,0.00,,,0.00,Weather View 32 v70,2013-03-01 05:18:00,
2013-02-28 23:24:00,37.5,27.9,30.29,NNW,341,6.0,20.0,68,0.00,,,0.00,Weather View 32 v70,2013-03-01 05:24:00,
2013-02-28 23:33:00,37.5,27.9,30.29,North,354,7.0,16.0,68,0.00,,,0.00,Weather View 32 v70,2013-03-01 05:33:00,
2013-02-28 23:38:00,37.5,27.9,30.29,NNW,335,6.0,16.0,68,0.00,,,0.00,Weather View 32 v70,2013-03-01 05:38:00,
2013-02-28 23:48:00,37.3,27.3,30.29,NW,314,6.0,15.0,67,0.00,,,0.00,Weather View 32 v70,2013-03-01 05:48:00,
2013-02-28 23:53:00,37.2,27.2,30.29,NNW,341,9.0,15.0,67,0.00,,,0.00,Weather View 32 v70,2013-03-01 05:53:00,
2013-02-28 23:59:00,37.2,27.2,30.29,North,354,12.0,15.0,67,0.00,,,0.00,Weather View 32 v70,2013-03-01 05:59:00,